{"data":{"norad_id":48367,"intl_designator":"2021-038Q","name":"STARLINK-2643","alt_names":[],"object_type":"PAYLOAD","status":"ACTIVE","operator":null,"country":"US","launch_date":"2021-05-04","launch_site_code":"AFETR","launch_vehicle":null,"mission":null,"orbit_class":"UNKNOWN","rcs_meters":null,"size_class":null,"mass_kg":null,"dimensions":null,"purposes":["comms"],"wikipedia_slug":null,"has_3d_model":false,"image_url":null,"decayed_at":null,"tle_current":{"epoch":"2026-05-24T20:25:47.063424Z","epoch_age_seconds":94651,"freshness":"FRESH","line1":"1 48367U 21038Q   26144.85123916  .00005190  00000+0  17882-3 0  9997","line2":"2 48367  53.1613 351.1685 0001361  94.2259 265.8898 15.31710664278928","mean_motion":15.31710664,"eccentricity":0.0001361,"inclination_deg":53.1613,"raan_deg":351.1685,"arg_perigee_deg":94.2259,"mean_anomaly_deg":265.8898,"bstar":0.00017882,"rev_number":27892,"period_min":94.012533427136,"perigee_km":469.77607874837,"apogee_km":471.64033441361,"semimajor_km":6848.845206581,"source":"CELESTRAK","updated_at":"2026-05-25T13:38:16.686987Z"}}}